,,,PA_Meas_PMT16A,,PR_Meas_QMR101_102,,RH_Meas_QMH101,,SR_Meas_QMS101,,TA_Meas_QMH101,,GenWind,,GenWind,
date,time,status,PA,status,PR,status,RH,status,SR,status,TA,status,DirAvg,status,SpdAvg,
2009-10-22, 00:00:04,VALID,1004.97,VALID,0,VALID,94.087,VALID,0,VALID,24.2273,VALID,23,VALID,0,
2009-10-22, 00:01:04,VALID,1004.97,VALID,0,VALID,94.0107,VALID,0,VALID,24.2273,VALID,23,VALID,0,
2009-10-22, 00:02:04,VALID,1004.98,VALID,0,VALID,93.9573,VALID,0,VALID,24.2486,VALID,23,VALID,0,
2009-10-22, 00:03:04,VALID,1004.94,VALID,0,VALID,93.8734,VALID,0,VALID,24.2273,VALID,23,VALID,0,
2009-10-22, 00:04:04,VALID,1004.96,VALID,0,VALID,93.7055,VALID,0.100563,VALID,24.2078,VALID,23,VALID,0,
2009-10-22, 00:05:04,VALID,1004.95,VALID,0,VALID,93.6674,VALID,0.100563,VALID,24.2273,VALID,23,VALID,0,
2009-10-22, 00:06:04,VALID,1004.94,VALID,0,VALID,93.6445,VALID,0.100563,VALID,24.2273,VALID,18,VALID,0,
2009-10-22, 00:07:04,VALID,1004.96,VALID,0,VALID,93.6064,VALID,0.100563,VALID,24.2468,VALID,17,VALID,0,
2009-10-22, 00:08:04,VALID,1004.91,VALID,0,VALID,93.5377,VALID,0.100563,VALID,24.2662,VALID,357,VALID,0.08125,
2009-10-22, 00:09:04,VALID,1004.91,VALID,0,VALID,93.4996,VALID,0,VALID,24.3052,VALID,344,VALID,0.39375,
2009-10-22, 00:10:04,VALID,1004.9,VALID,0,VALID,93.3241,VALID,0.100563,VALID,24.3228,VALID,344,VALID,0.433594,
2009-10-22, 00:11:04,VALID,1004.88,VALID,0,VALID,93.1334,VALID,0,VALID,24.3441,VALID,344,VALID,0,
2009-10-22, 00:12:04,VALID,1004.88,VALID,0,VALID,93.0037,VALID,0.100563,VALID,24.3228,VALID,344,VALID,0,
2009-10-22, 00:13:04,VALID,1004.89,VALID,0,VALID,92.8892,VALID,0,VALID,24.3636,VALID,344,VALID,0.159375,
2009-10-22, 00:14:04,VALID,1004.89,VALID,0,VALID,92.7596,VALID,0,VALID,24.3849,VALID,344,VALID,0.236719,
2009-10-22, 00:15:04,VALID,1004.88,VALID,0,VALID,92.729,VALID,0.100563,VALID,24.3441,VALID,344,VALID,0.157813,
2009-10-22, 00:16:04,VALID,1004.9,VALID,0,VALID,92.7062,VALID,0.100563,VALID,24.3441,VALID,344,VALID,0.272266,
2009-10-22, 00:17:04,VALID,1004.9,VALID,0,VALID,92.7596,VALID,0.100563,VALID,24.3636,VALID,344,VALID,0.223438,
2009-10-22, 00:18:04,VALID,1004.85,VALID,0,VALID,92.7748,VALID,0.100563,VALID,24.3636,VALID,344,VALID,0.248828,
2009-10-22, 00:19:04,VALID,1004.86,VALID,0,VALID,92.8206,VALID,0.100563,VALID,24.383,VALID,344,VALID,0,
2009-10-22, 00:20:04,VALID,1004.84,VALID,0,VALID,92.7062,VALID,0,VALID,24.4201,VALID,344,VALID,0,
2009-10-22, 00:21:04,VALID,1004.82,VALID,0,VALID,92.4925,VALID,0.100563,VALID,24.4396,VALID,344,VALID,0,
2009-10-22, 00:22:04,VALID,1004.78,VALID,0,VALID,92.4239,VALID,0,VALID,24.4609,VALID,344,VALID,0,
2009-10-22, 00:23:04,VALID,1004.8,VALID,0,VALID,92.4239,VALID,0.100563,VALID,24.498,VALID,26,VALID,0.369531,
2009-10-22, 00:24:04,VALID,1004.8,VALID,0,VALID,92.2103,VALID,0.100563,VALID,24.5369,VALID,26,VALID,0.117969,
2009-10-22, 00:25:04,VALID,1004.85,VALID,0,VALID,92.0806,VALID,0.100563,VALID,24.5582,VALID,26,VALID,0.229687,
2009-10-22, 00:26:04,VALID,1004.83,VALID,0,VALID,92.0501,VALID,0.100563,VALID,24.5777,VALID,7,VALID,0.326953,
2009-10-22, 00:27:04,VALID,1004.88,VALID,0,VALID,91.928,VALID,0.100563,VALID,24.5758,VALID,7,VALID,0.0523437,
2009-10-22, 00:28:04,VALID,1004.91,VALID,0,VALID,91.867,VALID,0.100563,VALID,24.6166,VALID,7,VALID,0,
2009-10-22, 00:29:04,VALID,1004.94,VALID,0,VALID,91.8136,VALID,0.100563,VALID,24.6166,VALID,7,VALID,0,
2009-10-22, 00:30:04,VALID,1004.96,VALID,0,VALID,91.7602,VALID,0.100563,VALID,24.6556,VALID,7,VALID,0,
2009-10-22, 00:31:04,VALID,1004.96,VALID,0,VALID,91.6839,VALID,0,VALID,24.6556,VALID,7,VALID,0,
2009-10-22, 00:32:04,VALID,1004.98,VALID,0,VALID,91.5542,VALID,0.100563,VALID,24.6926,VALID,7,VALID,0,
2009-10-22, 00:33:04,VALID,1005,VALID,0,VALID,91.4398,VALID,0,VALID,24.7529,VALID,7,VALID,0,
2009-10-22, 00:34:04,VALID,1005.03,VALID,0,VALID,91.3635,VALID,0.100563,VALID,24.7919,VALID,7,VALID,0,
2009-10-22, 00:35:04,VALID,1004.99,VALID,0,VALID,91.4016,VALID,0.100563,VALID,24.8503,VALID,7,VALID,0.0519531,
2009-10-22, 00:36:04,VALID,1005.02,VALID,0,VALID,91.4932,VALID,0.100563,VALID,24.8484,VALID,7,VALID,0,
2009-10-22, 00:37:04,VALID,1005.02,VALID,0,VALID,91.3558,VALID,0.100563,VALID,24.8289,VALID,7,VALID,0.174219,
2009-10-22, 00:38:04,VALID,1005.01,VALID,0,VALID,91.2262,VALID,0.100563,VALID,24.8289,VALID,7,VALID,0,
2009-10-22, 00:39:04,VALID,1005,VALID,0,VALID,91.3406,VALID,0,VALID,24.8503,VALID,7,VALID,0,
2009-10-22, 00:40:04,VALID,1004.97,VALID,0,VALID,91.333,VALID,0.100563,VALID,24.8095,VALID,7,VALID,0,
2009-10-22, 00:41:04,VALID,1004.93,VALID,0,VALID,91.3558,VALID,0.100563,VALID,24.8113,VALID,7,VALID,0,
2009-10-22, 00:42:04,VALID,1004.92,VALID,0,VALID,91.3406,VALID,0.100563,VALID,24.7705,VALID,7,VALID,0,
2009-10-22, 00:43:04,VALID,1004.91,VALID,0,VALID,91.4169,VALID,0,VALID,24.7705,VALID,7,VALID,0,
2009-10-22, 00:44:04,VALID,1004.9,VALID,0,VALID,91.4626,VALID,0,VALID,24.7724,VALID,7,VALID,0,
2009-10-22, 00:45:04,VALID,1004.9,VALID,0,VALID,91.5618,VALID,0,VALID,24.7335,VALID,7,VALID,0,
2009-10-22, 00:46:04,VALID,1004.89,VALID,0,VALID,91.661,VALID,0.100563,VALID,24.7335,VALID,7,VALID,0,
2009-10-22, 00:47:04,VALID,1004.88,VALID,0,VALID,91.8136,VALID,0.100563,VALID,24.6945,VALID,7,VALID,0,
2009-10-22, 00:48:04,VALID,1004.91,VALID,0,VALID,91.8517,VALID,0,VALID,24.675,VALID,7,VALID,0,
2009-10-22, 00:49:04,VALID,1004.88,VALID,0,VALID,91.9509,VALID,0.100563,VALID,24.6342,VALID,7,VALID,0,
2009-10-22, 00:50:04,VALID,1004.9,VALID,0,VALID,92.0653,VALID,0,VALID,24.6361,VALID,7,VALID,0,
2009-10-22, 00:51:04,VALID,1004.88,VALID,0,VALID,92.1874,VALID,0,VALID,24.6361,VALID,7,VALID,0,
2009-10-22, 00:52:04,VALID,1004.85,VALID,0,VALID,92.2255,VALID,0,VALID,24.6166,VALID,7,VALID,0,
2009-10-22, 00:53:04,VALID,1004.82,VALID,0,VALID,92.2103,VALID,0,VALID,24.5972,VALID,7,VALID,0.206641,
2009-10-22, 00:54:04,VALID,1004.8,VALID,0,VALID,92.2561,VALID,0,VALID,24.5777,VALID,7,VALID,0.470313,
2009-10-22, 00:55:04,VALID,1004.76,VALID,0,VALID,92.3476,VALID,0.100563,VALID,24.5582,VALID,7,VALID,0.294922,
2009-10-22, 00:56:04,VALID,1004.71,VALID,0,VALID,92.401,VALID,0.100563,VALID,24.5777,VALID,7,VALID,0.255078,
2009-10-22, 00:57:04,VALID,1004.68,VALID,0,VALID,92.4697,VALID,0,VALID,24.5582,VALID,7,VALID,0.206641,
2009-10-22, 00:58:04,VALID,1004.69,VALID,0,VALID,92.462,VALID,0,VALID,24.5777,VALID,7,VALID,0.389062,
2009-10-22, 00:59:04,VALID,1004.67,VALID,0,VALID,92.5002,VALID,0,VALID,24.5582,VALID,7,VALID,0.251563,
2009-10-22, 01:00:04,VALID,1004.66,VALID,0,VALID,92.5536,VALID,0.100563,VALID,24.5582,VALID,7,VALID,0.160938,
2009-10-22, 01:01:04,VALID,1004.67,VALID,0,VALID,92.6222,VALID,0,VALID,24.5582,VALID,7,VALID,0.144922,
2009-10-22, 01:02:04,VALID,1004.67,VALID,0,VALID,92.6604,VALID,0.100563,VALID,24.5582,VALID,7,VALID,0.00195313,
2009-10-22, 01:03:04,VALID,1004.67,VALID,0,VALID,92.6604,VALID,0,VALID,24.5601,VALID,7,VALID,0.00078125,
2009-10-22, 01:04:04,VALID,1004.68,VALID,0,VALID,92.6985,VALID,0,VALID,24.498,VALID,7,VALID,0,
2009-10-22, 01:05:04,VALID,1004.66,VALID,0,VALID,92.668,VALID,0,VALID,24.5388,VALID,7,VALID,0,
2009-10-22, 01:06:04,VALID,1004.7,VALID,0,VALID,92.6985,VALID,0,VALID,24.5193,VALID,7,VALID,0,
2009-10-22, 01:07:04,VALID,1004.7,VALID,0,VALID,92.7138,VALID,0.100563,VALID,24.5388,VALID,7,VALID,0,
2009-10-22, 01:08:04,VALID,1004.7,VALID,0,VALID,92.6909,VALID,0.100563,VALID,24.5388,VALID,7,VALID,0,
2009-10-22, 01:09:04,VALID,1004.69,VALID,0,VALID,92.6756,VALID,0.100563,VALID,24.5388,VALID,7,VALID,0,
2009-10-22, 01:10:04,VALID,1004.68,VALID,0,VALID,92.6756,VALID,0,VALID,24.5174,VALID,7,VALID,0,
2009-10-22, 01:11:04,VALID,1004.68,VALID,0,VALID,92.7214,VALID,0.100563,VALID,24.5388,VALID,7,VALID,0,
2009-10-22, 01:12:04,VALID,1004.68,VALID,0,VALID,92.729,VALID,0.100563,VALID,24.5582,VALID,7,VALID,0,
2009-10-22, 01:13:04,VALID,1004.64,VALID,0,VALID,92.7062,VALID,0.100563,VALID,24.5777,VALID,7,VALID,0.110937,
2009-10-22, 01:14:04,VALID,1004.6,VALID,0,VALID,92.6985,VALID,0,VALID,24.599,VALID,7,VALID,0.279687,
2009-10-22, 01:15:04,VALID,1004.62,VALID,0,VALID,92.607,VALID,0.100563,VALID,24.5972,VALID,7,VALID,0.360938,
2009-10-22, 01:16:04,VALID,1004.6,VALID,0,VALID,92.5612,VALID,0,VALID,24.6166,VALID,9,VALID,0.466797,
2009-10-22, 01:17:04,VALID,1004.55,VALID,0,VALID,92.3934,VALID,0,VALID,24.675,VALID,9,VALID,0.263281,
2009-10-22, 01:18:04,VALID,1004.51,VALID,0,VALID,92.1492,VALID,0,VALID,24.6945,VALID,9,VALID,0,
2009-10-22, 01:19:04,VALID,1004.48,VALID,0,VALID,91.928,VALID,0.100563,VALID,24.7335,VALID,9,VALID,0,
2009-10-22, 01:20:04,VALID,1004.44,VALID,0,VALID,91.7373,VALID,0.100563,VALID,24.7724,VALID,9,VALID,0.129297,
2009-10-22, 01:21:04,VALID,1004.45,VALID,0,VALID,91.5313,VALID,0.100563,VALID,24.7919,VALID,8,VALID,0,
2009-10-22, 01:22:04,VALID,1004.44,VALID,0,VALID,91.3864,VALID,0.100563,VALID,24.8308,VALID,8,VALID,0,
2009-10-22, 01:23:04,VALID,1004.46,VALID,0,VALID,91.2338,VALID,0.100563,VALID,24.8503,VALID,8,VALID,0,
2009-10-22, 01:24:04,VALID,1004.46,VALID,0,VALID,91.1117,VALID,0.100563,VALID,24.8503,VALID,8,VALID,0.421094,
2009-10-22, 01:25:04,VALID,1004.45,VALID,0,VALID,91.0965,VALID,0,VALID,24.8716,VALID,7,VALID,0,
2009-10-22, 01:26:04,VALID,1004.47,VALID,0,VALID,91.2262,VALID,0,VALID,24.8308,VALID,7,VALID,0,
2009-10-22, 01:27:04,VALID,1004.48,VALID,0,VALID,91.2872,VALID,0.100563,VALID,24.8308,VALID,6,VALID,0,
2009-10-22, 01:28:04,VALID,1004.5,VALID,0,VALID,91.455,VALID,0.100563,VALID,24.8113,VALID,7,VALID,0,
2009-10-22, 01:29:04,VALID,1004.52,VALID,0,VALID,91.4626,VALID,0,VALID,24.8308,VALID,7,VALID,0,
2009-10-22, 01:30:04,VALID,1004.54,VALID,0,VALID,91.4703,VALID,0.100563,VALID,24.8503,VALID,7,VALID,0,
2009-10-22, 01:31:04,VALID,1004.55,VALID,0,VALID,91.4855,VALID,0,VALID,24.8503,VALID,7,VALID,0,
2009-10-22, 01:32:04,VALID,1004.57,VALID,0,VALID,91.4703,VALID,0.100563,VALID,24.8503,VALID,7,VALID,0,
2009-10-22, 01:33:04,VALID,1004.58,VALID,0,VALID,91.4932,VALID,0.100563,VALID,24.8503,VALID,7,VALID,0,
2009-10-22, 01:34:04,VALID,1004.56,VALID,0,VALID,91.5237,VALID,0.100563,VALID,24.8484,VALID,7,VALID,0,
2009-10-22, 01:35:04,VALID,1004.54,VALID,0,VALID,91.5008,VALID,0.100563,VALID,24.8697,VALID,7,VALID,0,
2009-10-22, 01:36:04,VALID,1004.56,VALID,0,VALID,91.4932,VALID,0,VALID,24.8911,VALID,7,VALID,0,
2009-10-22, 01:37:04,VALID,1004.53,VALID,0,VALID,91.4855,VALID,0.100563,VALID,24.8697,VALID,7,VALID,0,
2009-10-22, 01:38:04,VALID,1004.53,VALID,0,VALID,91.5084,VALID,0.100563,VALID,24.93,VALID,7,VALID,0,
2009-10-22, 01:39:04,VALID,1004.49,VALID,0,VALID,91.5466,VALID,0.100563,VALID,24.8679,VALID,7,VALID,0,
2009-10-22, 01:40:04,VALID,1004.52,VALID,0,VALID,91.6,VALID,0.100563,VALID,24.8892,VALID,7,VALID,0,
2009-10-22, 01:41:04,VALID,1004.47,VALID,0,VALID,91.6839,VALID,0,VALID,24.8892,VALID,7,VALID,0,
2009-10-22, 01:42:04,VALID,1004.44,VALID,0,VALID,91.6915,VALID,0.100563,VALID,24.9087,VALID,7,VALID,0,
2009-10-22, 01:43:04,VALID,1004.4,VALID,0,VALID,91.7602,VALID,0.100563,VALID,24.9282,VALID,280,VALID,0,
2009-10-22, 01:44:04,VALID,1004.42,VALID,0,VALID,91.7754,VALID,0,VALID,24.9476,VALID,280,VALID,0,
2009-10-22, 01:45:04,VALID,1004.39,VALID,0,VALID,91.7602,VALID,0.100563,VALID,24.9671,VALID,280,VALID,0,
2009-10-22, 01:46:04,VALID,1004.37,VALID,0,VALID,91.7068,VALID,0.100563,VALID,24.9476,VALID,280,VALID,0,
2009-10-22, 01:47:04,VALID,1004.39,VALID,0,VALID,91.7373,VALID,0,VALID,24.9087,VALID,280,VALID,0,
2009-10-22, 01:48:04,VALID,1004.39,VALID,0,VALID,91.8441,VALID,0.100563,VALID,24.8697,VALID,280,VALID,0,
2009-10-22, 01:49:04,VALID,1004.36,VALID,0,VALID,91.9356,VALID,0.100563,VALID,24.8697,VALID,280,VALID,0,
2009-10-22, 01:50:04,VALID,1004.4,VALID,0,VALID,92.1874,VALID,0,VALID,24.8697,VALID,280,VALID,0,
2009-10-22, 01:51:04,VALID,1004.36,VALID,0,VALID,92.3476,VALID,0.100563,VALID,24.8503,VALID,280,VALID,0,
2009-10-22, 01:52:04,VALID,1004.36,VALID,0,VALID,92.4544,VALID,0,VALID,24.8503,VALID,281,VALID,0,
2009-10-22, 01:53:04,VALID,1004.3,VALID,0,VALID,92.5154,VALID,0,VALID,24.8308,VALID,281,VALID,0,
2009-10-22, 01:54:04,VALID,1004.29,VALID,0,VALID,92.5307,VALID,0,VALID,24.8308,VALID,286,VALID,0,
2009-10-22, 01:55:04,VALID,1004.24,VALID,0,VALID,92.5154,VALID,0,VALID,24.8503,VALID,340,VALID,0.345703,
2009-10-22, 01:56:04,VALID,1004.17,VALID,0,VALID,92.462,VALID,0.100563,VALID,24.8484,VALID,347,VALID,0.534375,
2009-10-22, 01:57:04,VALID,1004.15,VALID,0,VALID,92.34,VALID,0,VALID,24.8697,VALID,347,VALID,0.357812,
2009-10-22, 01:58:04,VALID,1004.11,VALID,0,VALID,92.1798,VALID,0,VALID,24.8892,VALID,347,VALID,0.302734,
2009-10-22, 01:59:04,VALID,1004.09,VALID,0,VALID,92.0272,VALID,0,VALID,24.9282,VALID,347,VALID,0.651953,
2009-10-22, 02:00:04,VALID,1004.06,VALID,0,VALID,91.8746,VALID,0.100563,VALID,24.9495,VALID,347,VALID,0.578125,
2009-10-22, 02:01:04,VALID,1004.05,VALID,0,VALID,91.7831,VALID,0,VALID,24.9282,VALID,347,VALID,0.564844,
2009-10-22, 02:02:04,VALID,1004.05,VALID,0,VALID,91.7678,VALID,0,VALID,24.9282,VALID,347,VALID,0.466016,
2009-10-22, 02:03:04,VALID,1004.02,VALID,0,VALID,91.7754,VALID,0,VALID,24.9087,VALID,347,VALID,0.426953,
2009-10-22, 02:04:04,VALID,1003.99,VALID,0,VALID,91.7297,VALID,0,VALID,24.8892,VALID,347,VALID,0.298828,
2009-10-22, 02:05:04,VALID,1004,VALID,0,VALID,91.6991,VALID,0,VALID,24.8503,VALID,347,VALID,0.311328,
2009-10-22, 02:06:04,VALID,1003.97,VALID,0,VALID,91.7373,VALID,0,VALID,24.8308,VALID,347,VALID,0.401172,
2009-10-22, 02:07:04,VALID,1003.91,VALID,0,VALID,91.7373,VALID,0,VALID,24.8113,VALID,347,VALID,0.492578,
2009-10-22, 02:08:04,VALID,1003.87,VALID,0,VALID,91.7373,VALID,0,VALID,24.8113,VALID,347,VALID,0.411719,
2009-10-22, 02:09:04,VALID,1003.89,VALID,0,VALID,91.7602,VALID,0,VALID,24.7937,VALID,347,VALID,0.478125,
2009-10-22, 02:10:04,VALID,1003.87,VALID,0,VALID,91.8288,VALID,0,VALID,24.7705,VALID,347,VALID,0.341016,
2009-10-22, 02:11:04,VALID,1003.86,VALID,0,VALID,91.8746,VALID,0,VALID,24.7705,VALID,333,VALID,0.493359,
2009-10-22, 02:12:04,VALID,1003.85,VALID,0,VALID,91.8899,VALID,0,VALID,24.7724,VALID,339,VALID,0.452344,
2009-10-22, 02:13:04,VALID,1003.87,VALID,0,VALID,91.8822,VALID,0,VALID,24.7919,VALID,339,VALID,0.429688,
2009-10-22, 02:14:04,VALID,1003.89,VALID,0,VALID,91.7678,VALID,0.100563,VALID,24.8308,VALID,343,VALID,0.523438,
2009-10-22, 02:15:04,VALID,1003.91,VALID,0,VALID,91.6305,VALID,0,VALID,24.8522,VALID,343,VALID,0.227344,
2009-10-22, 02:16:04,VALID,1003.89,VALID,0,VALID,91.5161,VALID,0,VALID,24.8503,VALID,342,VALID,0.323828,
2009-10-22, 02:17:04,VALID,1003.88,VALID,0,VALID,91.394,VALID,0,VALID,24.8697,VALID,342,VALID,0.357031,
2009-10-22, 02:18:04,VALID,1003.89,VALID,0,VALID,91.333,VALID,0,VALID,24.8716,VALID,342,VALID,0.292578,
2009-10-22, 02:19:04,VALID,1003.85,VALID,0,VALID,91.2567,VALID,0,VALID,24.8697,VALID,342,VALID,0.140234,
2009-10-22, 02:20:04,VALID,1003.87,VALID,0,VALID,91.3024,VALID,0,VALID,24.8503,VALID,342,VALID,0.201562,
2009-10-22, 02:21:04,VALID,1003.87,VALID,0,VALID,91.3406,VALID,0,VALID,24.8308,VALID,342,VALID,0.254687,
2009-10-22, 02:22:04,VALID,1003.82,VALID,0,VALID,91.3558,VALID,0,VALID,24.8308,VALID,342,VALID,0,
2009-10-22, 02:23:04,VALID,1003.82,VALID,0,VALID,91.4169,VALID,0,VALID,24.7937,VALID,342,VALID,0.221484,
2009-10-22, 02:24:04,VALID,1003.8,VALID,0,VALID,91.5771,VALID,0,VALID,24.7724,VALID,342,VALID,0.0191406,
2009-10-22, 02:25:04,VALID,1003.85,VALID,0,VALID,91.6,VALID,0,VALID,24.7724,VALID,343,VALID,0.0675781,
2009-10-22, 02:26:04,VALID,1003.84,VALID,0,VALID,91.5313,VALID,0,VALID,24.7919,VALID,343,VALID,0.24375,
2009-10-22, 02:27:04,VALID,1003.81,VALID,0,VALID,91.3711,VALID,0,VALID,24.7919,VALID,343,VALID,0.0898438,
2009-10-22, 02:28:04,VALID,1003.81,VALID,0,VALID,91.2567,VALID,0,VALID,24.7919,VALID,343,VALID,0,
2009-10-22, 02:29:04,VALID,1003.78,VALID,0,VALID,91.2185,VALID,0,VALID,24.8327,VALID,343,VALID,0.00078125,
2009-10-22, 02:30:04,VALID,1003.79,VALID,0,VALID,91.1804,VALID,0,VALID,24.8327,VALID,343,VALID,0,
2009-10-22, 02:31:04,VALID,1003.77,VALID,0,VALID,91.1575,VALID,0,VALID,24.8113,VALID,343,VALID,0,
2009-10-22, 02:32:04,VALID,1003.76,VALID,0,VALID,91.1575,VALID,0,VALID,24.7919,VALID,343,VALID,0,
2009-10-22, 02:33:04,VALID,1003.73,VALID,0,VALID,91.1956,VALID,0,VALID,24.7919,VALID,343,VALID,0.341016,
2009-10-22, 02:34:04,VALID,1003.71,VALID,0,VALID,91.2338,VALID,0,VALID,24.7724,VALID,343,VALID,0.404297,
2009-10-22, 02:35:04,VALID,1003.71,VALID,0,VALID,91.2948,VALID,0,VALID,24.7335,VALID,343,VALID,0.3125,
2009-10-22, 02:36:04,VALID,1003.72,VALID,0,VALID,91.3864,VALID,0,VALID,24.675,VALID,343,VALID,0.00078125,
2009-10-22, 02:37:04,VALID,1003.75,VALID,0,VALID,91.5237,VALID,0,VALID,24.6556,VALID,343,VALID,0.251172,
2009-10-22, 02:38:04,VALID,1003.75,VALID,0,VALID,91.6915,VALID,0,VALID,24.5972,VALID,348,VALID,0.467969,
2009-10-22, 02:39:04,VALID,1003.73,VALID,0,VALID,91.8365,VALID,0,VALID,24.5388,VALID,4,VALID,0.510156,
2009-10-22, 02:40:04,VALID,1003.71,VALID,0,VALID,92.0577,VALID,0,VALID,24.4804,VALID,4,VALID,0.495703,
2009-10-22, 02:41:04,VALID,1003.72,VALID,0,VALID,92.2789,VALID,0,VALID,24.4822,VALID,4,VALID,0.489453,
2009-10-22, 02:42:04,VALID,1003.69,VALID,0,VALID,92.4086,VALID,0,VALID,24.4628,VALID,41,VALID,0.434375,
2009-10-22, 02:43:04,VALID,1003.68,VALID,0,VALID,92.4086,VALID,0,VALID,24.383,VALID,38,VALID,0.542578,
2009-10-22, 02:44:04,VALID,1003.69,VALID,0,VALID,92.5231,VALID,0,VALID,24.3441,VALID,38,VALID,0.399609,
2009-10-22, 02:45:04,VALID,1003.67,VALID,0,VALID,92.5993,VALID,0,VALID,24.3246,VALID,38,VALID,0.322266,
2009-10-22, 02:46:04,VALID,1003.68,VALID,0,VALID,92.6909,VALID,0,VALID,24.2662,VALID,38,VALID,0.329688,
2009-10-22, 02:47:04,VALID,1003.71,VALID,0,VALID,92.7596,VALID,0,VALID,24.2681,VALID,38,VALID,0.444141,
2009-10-22, 02:48:04,VALID,1003.73,VALID,0,VALID,92.8892,VALID,0,VALID,24.2078,VALID,38,VALID,0.266797,
2009-10-22, 02:49:04,VALID,1003.71,VALID,0,VALID,93.1791,VALID,0,VALID,24.2468,VALID,37,VALID,0.176953,
2009-10-22, 02:50:04,VALID,1003.71,VALID,0,VALID,93.2478,VALID,0,VALID,24.2662,VALID,37,VALID,0.329297,
2009-10-22, 02:51:04,VALID,1003.66,VALID,0,VALID,93.2783,VALID,0,VALID,24.2662,VALID,37,VALID,0.462891,
2009-10-22, 02:52:04,VALID,1003.67,VALID,0,VALID,93.2554,VALID,0.100563,VALID,24.307,VALID,37,VALID,0.279297,
2009-10-22, 02:53:04,VALID,1003.64,VALID,0,VALID,93.2325,VALID,0,VALID,24.2875,VALID,35,VALID,0.407813,
2009-10-22, 02:54:04,VALID,1003.63,VALID,0,VALID,93.141,VALID,0,VALID,24.2857,VALID,354,VALID,0.773438,
2009-10-22, 02:55:04,VALID,1003.65,VALID,0,VALID,92.9503,VALID,0,VALID,24.3441,VALID,352,VALID,0.342969,
2009-10-22, 02:56:04,VALID,1003.65,VALID,0,VALID,92.607,VALID,0,VALID,24.4025,VALID,352,VALID,0.0851562,
2009-10-22, 02:57:04,VALID,1003.64,VALID,0,VALID,92.3705,VALID,0,VALID,24.4433,VALID,352,VALID,0.2125,
2009-10-22, 02:58:04,VALID,1003.64,VALID,0,VALID,92.1645,VALID,0.100563,VALID,24.4609,VALID,352,VALID,0.0691406,
2009-10-22, 02:59:04,VALID,1003.61,VALID,0,VALID,92.1035,VALID,0,VALID,24.4609,VALID,352,VALID,0.157031,
2009-10-22, 03:00:04,VALID,1003.63,VALID,0,VALID,92.0958,VALID,0,VALID,24.4609,VALID,352,VALID,0,
2009-10-22, 03:01:04,VALID,1003.65,VALID,0,VALID,92.0882,VALID,0.100563,VALID,24.4609,VALID,352,VALID,0.0503906,
2009-10-22, 03:02:04,VALID,1003.63,VALID,0,VALID,92.0806,VALID,0,VALID,24.4609,VALID,3,VALID,0.411719,
2009-10-22, 03:03:04,VALID,1003.62,VALID,0,VALID,92.0348,VALID,0,VALID,24.4628,VALID,3,VALID,0.207422,
2009-10-22, 03:04:04,VALID,1003.62,VALID,0,VALID,92.0196,VALID,0,VALID,24.4609,VALID,3,VALID,0.292188,
2009-10-22, 03:05:04,VALID,1003.61,VALID,0,VALID,92.0348,VALID,0,VALID,24.4609,VALID,3,VALID,0.232812,
2009-10-22, 03:06:04,VALID,1003.61,VALID,0,VALID,92.0501,VALID,0.100563,VALID,24.4628,VALID,3,VALID,0.0449219,
2009-10-22, 03:07:04,VALID,1003.62,VALID,0,VALID,92.0882,VALID,0,VALID,24.4414,VALID,3,VALID,0.164844,
2009-10-22, 03:08:04,VALID,1003.6,VALID,0,VALID,92.1264,VALID,0,VALID,24.422,VALID,3,VALID,0.312109,
2009-10-22, 03:09:04,VALID,1003.6,VALID,0,VALID,92.2027,VALID,0,VALID,24.422,VALID,3,VALID,0.345313,
2009-10-22, 03:10:04,VALID,1003.57,VALID,0,VALID,92.2637,VALID,0,VALID,24.4238,VALID,3,VALID,0.253516,
2009-10-22, 03:11:04,VALID,1003.55,VALID,0,VALID,92.34,VALID,0,VALID,24.4238,VALID,3,VALID,0.307422,
2009-10-22, 03:12:04,VALID,1003.53,VALID,0,VALID,92.2789,VALID,0.100563,VALID,24.422,VALID,3,VALID,0.188281,
2009-10-22, 03:13:04,VALID,1003.58,VALID,0,VALID,92.2637,VALID,0,VALID,24.4414,VALID,59,VALID,0.391406,
2009-10-22, 03:14:04,VALID,1003.57,VALID,0,VALID,92.134,VALID,0,VALID,24.4804,VALID,59,VALID,0.00117188,
2009-10-22, 03:15:04,VALID,1003.56,VALID,0,VALID,92.0577,VALID,0,VALID,24.5193,VALID,59,VALID,0.298828,
2009-10-22, 03:16:04,VALID,1003.55,VALID,0,VALID,91.8975,VALID,0,VALID,24.5582,VALID,49,VALID,0.0375,
2009-10-22, 03:17:04,VALID,1003.59,VALID,0,VALID,91.7373,VALID,0,VALID,24.5972,VALID,49,VALID,0.29375,
2009-10-22, 03:18:04,VALID,1003.59,VALID,0,VALID,91.5084,VALID,0,VALID,24.6361,VALID,358,VALID,0.373437,
2009-10-22, 03:19:04,VALID,1003.62,VALID,0,VALID,91.249,VALID,0,VALID,24.6945,VALID,352,VALID,0.376563,
2009-10-22, 03:20:04,VALID,1003.63,VALID,0,VALID,91.0583,VALID,0,VALID,24.7724,VALID,352,VALID,0.316016,
2009-10-22, 03:21:04,VALID,1003.62,VALID,0,VALID,90.8905,VALID,0,VALID,24.8113,VALID,352,VALID,0.2125,
2009-10-22, 03:22:04,VALID,1003.65,VALID,0,VALID,90.715,VALID,0,VALID,24.8716,VALID,353,VALID,0.419922,
2009-10-22, 03:23:04,VALID,1003.64,VALID,0,VALID,90.509,VALID,0,VALID,24.8892,VALID,12,VALID,0.255469,
2009-10-22, 03:24:04,VALID,1003.68,VALID,0,VALID,90.3793,VALID,0.100563,VALID,24.9282,VALID,12,VALID,0.234375,
2009-10-22, 03:25:04,VALID,1003.69,VALID,0,VALID,90.036,VALID,0,VALID,24.9476,VALID,12,VALID,0,
2009-10-22, 03:26:04,VALID,1003.68,VALID,0,VALID,89.9292,VALID,0.100563,VALID,24.9866,VALID,12,VALID,0.132422,
2009-10-22, 03:27:04,VALID,1003.74,VALID,0,VALID,89.5478,VALID,0,VALID,25.0255,VALID,352,VALID,0.344922,
2009-10-22, 03:28:04,VALID,1003.73,VALID,0,VALID,89.5631,VALID,0.100563,VALID,25.1034,VALID,352,VALID,0.0898438,
2009-10-22, 03:29:04,VALID,1003.75,VALID,0,VALID,89.5402,VALID,0.100563,VALID,25.1229,VALID,352,VALID,0,
2009-10-22, 03:30:04,VALID,1003.73,VALID,0,VALID,89.1664,VALID,0,VALID,25.1423,VALID,345,VALID,0.775,
2009-10-22, 03:31:04,VALID,1003.76,VALID,0,VALID,88.8765,VALID,0,VALID,25.2007,VALID,48,VALID,0.364844,
2009-10-22, 03:32:05,VALID,1003.76,VALID,0,VALID,88.8993,VALID,0,VALID,25.2202,VALID,48,VALID,0.268359,
2009-10-22, 03:33:05,VALID,1003.8,VALID,0,VALID,88.5408,VALID,0,VALID,25.2397,VALID,44,VALID,0.348437,
2009-10-22, 03:34:05,VALID,1003.79,VALID,0,VALID,88.4798,VALID,0.100563,VALID,25.2592,VALID,44,VALID,0.264844,
2009-10-22, 03:35:05,VALID,1003.83,VALID,0,VALID,88.3195,VALID,0,VALID,25.2786,VALID,37,VALID,0.295703,
2009-10-22, 03:36:05,VALID,1003.86,VALID,0,VALID,88.2051,VALID,0,VALID,25.2572,VALID,37,VALID,0.255469,
2009-10-22, 03:37:05,VALID,1003.86,VALID,0,VALID,88.1746,VALID,0,VALID,25.2572,VALID,37,VALID,0.247266,
2009-10-22, 03:38:05,VALID,1003.84,VALID,0,VALID,88.167,VALID,0,VALID,25.2572,VALID,37,VALID,0.0015625,
2009-10-22, 03:39:05,VALID,1003.84,VALID,0,VALID,88.0983,VALID,0,VALID,25.3,VALID,24,VALID,0.0695312,
2009-10-22, 03:40:05,VALID,1003.81,VALID,0,VALID,87.9762,VALID,0,VALID,25.2592,VALID,360,VALID,0.4375,
2009-10-22, 03:41:05,VALID,1003.79,VALID,0,VALID,88.0831,VALID,0,VALID,25.2592,VALID,1,VALID,0.382422,
2009-10-22, 03:42:05,VALID,1003.79,VALID,0,VALID,88.0831,VALID,0,VALID,25.2786,VALID,1,VALID,0.524609,
2009-10-22, 03:43:05,VALID,1003.78,VALID,0,VALID,88.2433,VALID,0,VALID,25.2397,VALID,1,VALID,0.181641,
2009-10-22, 03:44:05,VALID,1003.79,VALID,0,VALID,88.2204,VALID,0,VALID,25.2007,VALID,357,VALID,0.611719,
2009-10-22, 03:45:05,VALID,1003.78,VALID,0,VALID,88.1746,VALID,0,VALID,25.2397,VALID,346,VALID,0.572656,
2009-10-22, 03:46:05,VALID,1003.78,VALID,0,VALID,88.1899,VALID,0,VALID,25.2202,VALID,345,VALID,0.550391,